Location: Carri�res
(48.9069°N, 2.1792°E)
Time: 05:20:29
(UTC+00:00)

SeaSat 1 - Pass Details

Date: 10 May 2021
Orbit: 744 x 747 km, 108.0° (Epoch: 12 June)

Event Time Altitude Azimuth Distance (km) Brightness Sun altitude
Rises 02:04:20 0° 21° (NNE) 3,203 7.3 -16.8°
Reaches altitude 10° 02:07:18 10° 2° (N) 2,275 5.8 -16.6°
Maximum altitude 02:10:27 17° 322° (NW) 1,818 4.6 -16.3°
Drops below altitude 10° 02:13:36 10° 282° (WNW) 2,269 4.7 -16.0°
Enters shadow 02:14:41 - 274° (W) 2,575 4.9 -15.9°
